WZZ2230 LWSK-LHBP

Flight info

Callsign WZZ2230
Flight time 1h 13m
Altitude 36000
Route RAXAD DCT RAVAK DCT OKLOP DCT MAVIT DCT KEZAL
Aircraft A321/M-SDE3FGHIRWY/LB1

Departure

Time 2026-04-23 05:07
Airport Skopje International Airport (LWSK)

Arrival

Time 2026-04-23 06:21
Airport Budapest Liszt Ferenc International Airport (LHBP)
Time Latitude Longitude Altitude Speed Heading
2026-04-23 04:30 41.95995 21.62613 793 ft 0 kts 75°
2026-04-23 04:59 41.95994 21.62608 793 ft 3 kts 75°
2026-04-23 04:59 41.95987 21.62575 793 ft 4 kts 81°
2026-04-23 05:00 41.95992 21.62551 793 ft 4 kts 157°
2026-04-23 05:00 41.96017 21.62542 793 ft 3 kts 166°
2026-04-23 05:00 41.96038 21.62535 793 ft 4 kts 166°
2026-04-23 05:00 41.96054 21.62530 793 ft 0 kts 166°
2026-04-23 05:03 41.96051 21.62530 793 ft 1 kts 166°
2026-04-23 05:03 41.96038 21.62532 793 ft 3 kts 182°
2026-04-23 05:03 41.96018 21.62510 793 ft 5 kts 235°
2026-04-23 05:03 41.96032 21.62459 791 ft 8 kts 331°
2026-04-23 05:04 41.96097 21.62434 791 ft 11 kts 345°
2026-04-23 05:04 41.96182 21.62404 791 ft 14 kts 345°
2026-04-23 05:04 41.96298 21.62363 792 ft 19 kts 345°
2026-04-23 05:04 41.96426 21.62317 793 ft 20 kts 345°
2026-04-23 05:05 41.96560 21.62270 793 ft 20 kts 346°
2026-04-23 05:05 41.96698 21.62222 793 ft 20 kts 345°
2026-04-23 05:05 41.96797 21.62187 793 ft 13 kts 346°
2026-04-23 05:05 41.96881 21.62145 793 ft 14 kts 322°
2026-04-23 05:06 41.96948 21.62038 792 ft 16 kts 309°
2026-04-23 05:06 41.97006 21.61922 790 ft 13 kts 279°
2026-04-23 05:06 41.96947 21.61871 790 ft 13 kts 168°
2026-04-23 05:06 41.96765 21.61934 792 ft 58 kts 165°
2026-04-23 05:07 41.96135 21.62155 789 ft 127 kts 165°
2026-04-23 05:07 41.95098 21.62520 884 ft 172 kts 165°
2026-04-23 05:07 41.93951 21.62905 1627 ft 168 kts 164°
2026-04-23 05:07 41.92820 21.63289 2378 ft 167 kts 165°
2026-04-23 05:08 41.91669 21.63682 2815 ft 180 kts 165°
2026-04-23 05:08 41.90396 21.64133 3046 ft 199 kts 165°
2026-04-23 05:08 41.88976 21.64634 3220 ft 222 kts 165°
2026-04-23 05:08 41.87391 21.65185 3408 ft 249 kts 166°
2026-04-23 05:09 41.85678 21.65779 3878 ft 263 kts 165°
2026-04-23 05:09 41.83883 21.66403 4576 ft 270 kts 165°
2026-04-23 05:09 41.82050 21.67040 5301 ft 275 kts 165°
2026-04-23 05:09 41.80254 21.67951 6010 ft 279 kts 146°
2026-04-23 05:10 41.78852 21.69736 6714 ft 280 kts 121°
2026-04-23 05:10 41.78115 21.72112 7446 ft 277 kts 97°
2026-04-23 05:10 41.78143 21.74672 8162 ft 276 kts 74°
2026-04-23 05:10 41.78923 21.76998 8861 ft 275 kts 51°
2026-04-23 05:11 41.80303 21.78705 9534 ft 276 kts 29°
2026-04-23 05:11 41.82106 21.79574 10190 ft 280 kts 10°
2026-04-23 05:11 41.84069 21.80240 10374 ft 303 kts 22°
2026-04-23 05:11 41.86060 21.81464 10523 ft 325 kts 24°
2026-04-23 05:12 41.88127 21.82830 10973 ft 336 kts 32°
2026-04-23 05:12 41.89801 21.85036 11569 ft 343 kts 53°
2026-04-23 05:12 41.91063 21.87772 12231 ft 347 kts 60°
2026-04-23 05:12 41.92295 21.90583 12867 ft 350 kts 56°
2026-04-23 05:13 41.93645 21.93323 13451 ft 354 kts 54°
2026-04-23 05:13 41.94894 21.96154 14034 ft 361 kts 63°
2026-04-23 05:13 41.95745 21.99356 14598 ft 367 kts 76°
2026-04-23 05:14 41.96289 22.06269 15696 ft 377 kts 85°
2026-04-23 05:14 41.96485 22.09795 16229 ft 381 kts 85°
2026-04-23 05:14 41.96692 22.13372 16772 ft 386 kts 85°
2026-04-23 05:14 41.96908 22.16980 17303 ft 390 kts 84°
2026-04-23 05:15 41.97132 22.20595 17824 ft 395 kts 83°
2026-04-23 05:15 41.97743 22.24189 18312 ft 398 kts 67°
2026-04-23 05:15 41.99081 22.27432 18831 ft 399 kts 50°
2026-04-23 05:15 42.01038 22.30060 19334 ft 398 kts 34°
2026-04-23 05:16 42.03455 22.31853 19893 ft 397 kts 18°
2026-04-23 05:16 42.06131 22.32680 20426 ft 395 kts
2026-04-23 05:16 42.08859 22.32493 20930 ft 393 kts 346°
2026-04-23 05:16 42.11512 22.31554 21417 ft 395 kts 342°
2026-04-23 05:17 42.14129 22.30568 21892 ft 399 kts 342°
2026-04-23 05:17 42.16814 22.29554 22354 ft 402 kts 342°
2026-04-23 05:17 42.19518 22.28534 22788 ft 405 kts 342°
2026-04-23 05:17 42.22239 22.27510 23216 ft 408 kts 342°
2026-04-23 05:18 42.24980 22.26481 23626 ft 411 kts 342°
2026-04-23 05:18 42.27746 22.25443 24044 ft 414 kts 342°
2026-04-23 05:18 42.30530 22.24395 24459 ft 416 kts 342°
2026-04-23 05:18 42.33320 22.23291 24879 ft 418 kts 341°
2026-04-23 05:19 42.36099 22.22107 25311 ft 420 kts 340°
2026-04-23 05:19 42.38840 22.20888 25718 ft 421 kts 339°
2026-04-23 05:19 42.41622 22.19630 26128 ft 423 kts 339°
2026-04-23 05:19 42.44416 22.18364 26519 ft 424 kts 339°
2026-04-23 05:20 42.47219 22.17109 26895 ft 425 kts 339°
2026-04-23 05:20 42.50040 22.15860 27260 ft 427 kts 339°
2026-04-23 05:20 42.52872 22.14615 27614 ft 428 kts 340°
2026-04-23 05:20 42.55710 22.13370 27956 ft 430 kts 340°
2026-04-23 05:21 42.58562 22.12118 28298 ft 431 kts 340°
2026-04-23 05:21 42.61425 22.10859 28630 ft 433 kts 340°
2026-04-23 05:21 42.64292 22.09596 28962 ft 434 kts 340°
2026-04-23 05:21 42.67133 22.08346 29276 ft 436 kts 340°
2026-04-23 05:22 42.70027 22.07072 29599 ft 437 kts 340°
2026-04-23 05:22 42.72927 22.05794 29914 ft 439 kts 340°
2026-04-23 05:22 42.75832 22.04510 30216 ft 440 kts 340°
2026-04-23 05:22 42.78747 22.03222 30583 ft 440 kts 340°
2026-04-23 05:23 42.81653 22.01935 30962 ft 439 kts 340°
2026-04-23 05:23 42.84556 22.00643 31300 ft 439 kts 340°
2026-04-23 05:23 42.87457 21.99350 31628 ft 439 kts 340°
2026-04-23 05:23 42.90320 21.98075 31964 ft 439 kts 341°
2026-04-23 05:24 42.93218 21.96782 32288 ft 438 kts 341°
2026-04-23 05:24 42.96113 21.95492 32603 ft 438 kts 341°
2026-04-23 05:24 42.99015 21.94200 32905 ft 438 kts 341°
2026-04-23 05:24 43.01911 21.92911 33200 ft 438 kts 341°
2026-04-23 05:25 43.04806 21.91620 33480 ft 438 kts 341°
2026-04-23 05:25 43.07707 21.90326 33753 ft 438 kts 341°
2026-04-23 05:25 43.10601 21.89028 34033 ft 438 kts 341°
2026-04-23 05:25 43.13499 21.87724 34317 ft 438 kts 341°
2026-04-23 05:26 43.16353 21.86439 34577 ft 438 kts 341°
2026-04-23 05:26 43.19250 21.85135 34830 ft 438 kts 341°
2026-04-23 05:26 43.22143 21.83834 35079 ft 438 kts 341°
2026-04-23 05:26 43.25043 21.82528 35340 ft 438 kts 341°
2026-04-23 05:27 43.27935 21.81226 35591 ft 438 kts 342°
2026-04-23 05:27 43.30832 21.79920 35833 ft 438 kts 342°
2026-04-23 05:27 43.33724 21.78613 36068 ft 438 kts 341°
2026-04-23 05:28 43.39487 21.76014 36164 ft 438 kts 342°
2026-04-23 05:28 43.45279 21.73395 36165 ft 439 kts 342°
2026-04-23 05:29 43.51070 21.70767 36165 ft 438 kts 342°
2026-04-23 05:29 43.56855 21.68132 36165 ft 438 kts 342°
2026-04-23 05:30 43.62649 21.65492 36164 ft 439 kts 342°
2026-04-23 05:30 43.68400 21.62865 36170 ft 439 kts 341°
2026-04-23 05:31 43.74093 21.59808 36174 ft 439 kts 337°
2026-04-23 05:31 43.79673 21.56358 36177 ft 439 kts 336°
2026-04-23 05:32 43.85257 21.52909 36185 ft 440 kts 337°
2026-04-23 05:32 43.90839 21.49578 36186 ft 440 kts 338°
2026-04-23 05:33 43.96469 21.46248 36185 ft 439 kts 338°
2026-04-23 05:33 44.02091 21.42907 36188 ft 439 kts 338°
2026-04-23 05:34 44.07703 21.39557 36188 ft 439 kts 338°
2026-04-23 05:34 44.13284 21.36205 36185 ft 440 kts 338°
2026-04-23 05:35 44.19042 21.33480 36187 ft 436 kts 352°
2026-04-23 05:35 44.25079 21.33026 36187 ft 435 kts
2026-04-23 05:36 44.31132 21.32905 36191 ft 435 kts
2026-04-23 05:36 44.37193 21.32760 36191 ft 435 kts
2026-04-23 05:37 44.43211 21.32616 36195 ft 435 kts
2026-04-23 05:37 44.49262 21.32475 36195 ft 435 kts
2026-04-23 05:38 44.55305 21.32344 36194 ft 434 kts
2026-04-23 05:38 44.61340 21.32216 36194 ft 434 kts
2026-04-23 05:39 44.67338 21.32088 36187 ft 433 kts
2026-04-23 05:39 44.73369 21.31959 36188 ft 433 kts
2026-04-23 05:40 44.79390 21.31833 36189 ft 433 kts
2026-04-23 05:40 44.85418 21.31705 36184 ft 433 kts
2026-04-23 05:41 44.91393 21.31575 36188 ft 432 kts
2026-04-23 05:41 44.97403 21.31444 36191 ft 432 kts
2026-04-23 05:42 45.03402 21.31304 36190 ft 431 kts
2026-04-23 05:42 45.09404 21.31160 36189 ft 431 kts
2026-04-23 05:43 45.15349 21.31026 36189 ft 430 kts
2026-04-23 05:43 45.21332 21.30881 36195 ft 430 kts
2026-04-23 05:44 45.27214 21.29115 36189 ft 438 kts 343°
2026-04-23 05:44 45.32900 21.26011 36185 ft 438 kts 343°
2026-04-23 05:45 45.38561 21.22912 36183 ft 439 kts 343°
2026-04-23 05:45 45.44261 21.19809 36178 ft 438 kts 343°
2026-04-23 05:46 45.49950 21.16700 36182 ft 438 kts 343°
2026-04-23 05:46 45.55636 21.13580 36173 ft 438 kts 343°
2026-04-23 05:47 45.61288 21.10466 36171 ft 438 kts 343°
2026-04-23 05:47 45.66968 21.07336 36173 ft 438 kts 344°
2026-04-23 05:48 45.72650 21.04202 36162 ft 438 kts 344°
2026-04-23 05:48 45.78339 21.01067 36161 ft 438 kts 344°
2026-04-23 05:49 45.84011 20.97930 36159 ft 437 kts 344°
2026-04-23 05:49 45.89647 20.94798 36155 ft 437 kts 344°
2026-04-23 05:50 45.95316 20.91636 36153 ft 437 kts 344°
2026-04-23 05:50 46.00998 20.88462 36153 ft 438 kts 344°
2026-04-23 05:51 46.06636 20.85311 36160 ft 437 kts 345°
2026-04-23 05:51 46.12295 20.82152 36160 ft 436 kts 345°
2026-04-23 05:52 46.17952 20.78974 36160 ft 436 kts 345°
2026-04-23 05:52 46.23604 20.75792 36158 ft 435 kts 345°
2026-04-23 05:53 46.29206 20.72628 36158 ft 435 kts 345°
2026-04-23 05:53 46.34842 20.69443 36157 ft 435 kts 345°
2026-04-23 05:54 46.40486 20.66248 36156 ft 435 kts 345°
2026-04-23 05:54 46.46129 20.63044 36159 ft 436 kts 345°
2026-04-23 05:55 46.51768 20.59832 36086 ft 436 kts 345°
2026-04-23 05:55 46.54585 20.58227 35829 ft 434 kts 345°
2026-04-23 05:55 46.57358 20.56644 35583 ft 433 kts 345°
2026-04-23 05:55 46.60160 20.55044 35330 ft 433 kts 346°
2026-04-23 05:56 46.62966 20.53440 35055 ft 433 kts 346°
2026-04-23 05:56 46.65771 20.51833 34412 ft 434 kts 346°
2026-04-23 05:56 46.68594 20.50215 33627 ft 438 kts 346°
2026-04-23 05:56 46.71438 20.48587 32849 ft 441 kts 346°
2026-04-23 05:57 46.74302 20.46945 32188 ft 440 kts 346°
2026-04-23 05:57 46.77128 20.45317 31721 ft 435 kts 346°
2026-04-23 05:57 46.79932 20.43694 31205 ft 432 kts 346°
2026-04-23 05:57 46.82674 20.42103 30703 ft 428 kts 346°
2026-04-23 05:58 46.85429 20.40505 30194 ft 424 kts 346°
2026-04-23 05:58 46.88160 20.38923 29684 ft 420 kts 346°
2026-04-23 05:58 46.90863 20.37358 29178 ft 415 kts 346°
2026-04-23 05:58 46.93529 20.35816 28696 ft 411 kts 346°
2026-04-23 05:59 46.96172 20.34288 28203 ft 406 kts 345°
2026-04-23 05:59 46.98786 20.32775 27715 ft 401 kts 345°
2026-04-23 05:59 47.01367 20.31274 27242 ft 397 kts 345°
2026-04-23 05:59 47.03919 20.29792 26763 ft 392 kts 345°
2026-04-23 06:00 47.06409 20.28344 26294 ft 389 kts 345°
2026-04-23 06:00 47.08906 20.26890 25829 ft 385 kts 345°
2026-04-23 06:00 47.11381 20.25451 25456 ft 379 kts 344°
2026-04-23 06:00 47.13799 20.23917 25205 ft 381 kts 338°
2026-04-23 06:01 47.16034 20.21777 24955 ft 388 kts 327°
2026-04-23 06:01 47.18000 20.19021 24704 ft 393 kts 319°
2026-04-23 06:01 47.19859 20.16087 24456 ft 392 kts 319°
2026-04-23 06:01 47.21712 20.13160 24197 ft 390 kts 319°
2026-04-23 06:02 47.23528 20.10292 23953 ft 388 kts 319°
2026-04-23 06:02 47.25362 20.07396 23722 ft 386 kts 319°
2026-04-23 06:02 47.27186 20.04516 23418 ft 381 kts 319°
2026-04-23 06:02 47.28995 20.01662 22629 ft 385 kts 319°
2026-04-23 06:03 47.30829 19.98769 21640 ft 385 kts 319°
2026-04-23 06:03 47.32643 19.95898 20757 ft 380 kts 318°
2026-04-23 06:03 47.34432 19.93066 19881 ft 375 kts 318°
2026-04-23 06:03 47.36195 19.90265 19003 ft 370 kts 317°
2026-04-23 06:04 47.37907 19.87537 18128 ft 362 kts 317°
2026-04-23 06:04 47.39588 19.84858 17250 ft 351 kts 317°
2026-04-23 06:04 47.41231 19.82225 16807 ft 345 kts 316°
2026-04-23 06:04 47.42821 19.79641 16550 ft 337 kts 316°
2026-04-23 06:05 47.44386 19.77078 16302 ft 334 kts 316°
2026-04-23 06:05 47.45941 19.74533 16048 ft 333 kts 316°
2026-04-23 06:05 47.47486 19.72004 15797 ft 331 kts 316°
2026-04-23 06:05 47.49023 19.69488 15544 ft 329 kts 316°
2026-04-23 06:06 47.50554 19.66980 15297 ft 328 kts 316°
2026-04-23 06:06 47.52077 19.64476 15058 ft 326 kts 315°
2026-04-23 06:06 47.53573 19.62017 14800 ft 325 kts 315°
2026-04-23 06:06 47.55077 19.59540 14550 ft 323 kts 315°
2026-04-23 06:07 47.56577 19.57061 14297 ft 321 kts 315°
2026-04-23 06:07 47.58055 19.54620 13896 ft 317 kts 315°
2026-04-23 06:07 47.59517 19.52204 13619 ft 310 kts 315°
2026-04-23 06:07 47.60886 19.49818 13488 ft 300 kts 306°
2026-04-23 06:08 47.61621 19.46969 13292 ft 299 kts 279°
2026-04-23 06:08 47.61393 19.43884 13028 ft 308 kts 254°
2026-04-23 06:08 47.60189 19.41205 12459 ft 321 kts 226°
2026-04-23 06:08 47.58582 19.39020 12193 ft 316 kts 225°
2026-04-23 06:09 47.56952 19.36863 11849 ft 314 kts 224°
2026-04-23 06:09 47.55295 19.34804 11641 ft 307 kts 214°
2026-04-23 06:09 47.53332 19.33740 11501 ft 298 kts 186°
2026-04-23 06:09 47.51315 19.34062 11082 ft 291 kts 157°
2026-04-23 06:10 47.49657 19.35667 10548 ft 284 kts 130°
2026-04-23 06:10 47.48326 19.37815 10008 ft 284 kts 130°
2026-04-23 06:10 47.47002 19.39967 9512 ft 282 kts 131°
2026-04-23 06:10 47.45686 19.42101 9039 ft 279 kts 132°
2026-04-23 06:11 47.44383 19.44206 8555 ft 277 kts 132°
2026-04-23 06:11 47.43094 19.46285 8072 ft 275 kts 133°
2026-04-23 06:11 47.41796 19.48376 7611 ft 273 kts 133°
2026-04-23 06:11 47.40515 19.50432 7239 ft 272 kts 132°
2026-04-23 06:12 47.39238 19.52490 6936 ft 271 kts 133°
2026-04-23 06:12 47.37980 19.54507 6609 ft 270 kts 133°
2026-04-23 06:12 47.35452 19.58517 5599 ft 265 kts 134°
2026-04-23 06:13 47.34202 19.60491 4994 ft 262 kts 134°
2026-04-23 06:13 47.32975 19.62431 4765 ft 257 kts 133°
2026-04-23 06:13 47.31753 19.64362 4629 ft 259 kts 134°
2026-04-23 06:13 47.30267 19.65924 4502 ft 262 kts 162°
2026-04-23 06:14 47.28528 19.66248 4351 ft 246 kts 192°
2026-04-23 06:14 47.27037 19.65328 4245 ft 231 kts 218°
2026-04-23 06:14 47.25800 19.63844 4114 ft 228 kts 231°
2026-04-23 06:14 47.24983 19.61895 3983 ft 223 kts 253°
2026-04-23 06:15 47.24738 19.59677 3870 ft 220 kts 275°
2026-04-23 06:15 47.25066 19.57509 3742 ft 218 kts 295°
2026-04-23 06:15 47.25912 19.55667 3616 ft 219 kts 312°
2026-04-23 06:15 47.26946 19.54022 3502 ft 219 kts 313°
2026-04-23 06:16 47.27979 19.52377 3379 ft 218 kts 312°
2026-04-23 06:16 47.29006 19.50737 3252 ft 218 kts 312°
2026-04-23 06:16 47.30032 19.49094 3138 ft 217 kts 312°
2026-04-23 06:16 47.31023 19.47507 3052 ft 208 kts 312°
2026-04-23 06:17 47.31985 19.45964 3000 ft 202 kts 312°
2026-04-23 06:17 47.32933 19.44445 2995 ft 201 kts 312°
2026-04-23 06:17 47.33853 19.42969 2840 ft 188 kts 312°
2026-04-23 06:17 47.34703 19.41605 2612 ft 173 kts 312°
2026-04-23 06:18 47.35465 19.40380 2425 ft 152 kts 312°
2026-04-23 06:18 47.36155 19.39271 2213 ft 143 kts 313°
2026-04-23 06:18 47.36807 19.38222 2031 ft 139 kts 313°
2026-04-23 06:18 47.37455 19.37181 1841 ft 137 kts 313°
2026-04-23 06:19 47.38100 19.36145 1665 ft 137 kts 313°
2026-04-23 06:19 47.38743 19.35109 1478 ft 137 kts 313°
2026-04-23 06:19 47.39385 19.34076 1299 ft 136 kts 313°
2026-04-23 06:19 47.40026 19.33044 1112 ft 136 kts 313°
2026-04-23 06:20 47.40666 19.32012 938 ft 137 kts 313°
2026-04-23 06:20 47.41310 19.30977 756 ft 137 kts 313°
2026-04-23 06:20 47.41956 19.29942 582 ft 137 kts 313°
2026-04-23 06:20 47.42594 19.28899 451 ft 132 kts 312°
2026-04-23 06:21 47.43110 19.28069 460 ft 88 kts 313°
2026-04-23 06:21 47.43406 19.27594 468 ft 38 kts 312°
2026-04-23 06:21 47.43538 19.27382 470 ft 24 kts 312°
2026-04-23 06:21 47.43640 19.27215 472 ft 21 kts 311°
2026-04-23 06:22 47.43717 19.27027 473 ft 22 kts 293°
2026-04-23 06:22 47.43761 19.26801 464 ft 24 kts 282°
2026-04-23 06:22 47.43789 19.26606 460 ft 13 kts 282°
2026-04-23 06:22 47.43799 19.26504 457 ft 9 kts 259°
2026-04-23 06:23 47.43753 19.26422 456 ft 12 kts 222°
2026-04-23 06:23 47.43699 19.26349 458 ft 8 kts 222°
2026-04-23 06:23 47.43654 19.26289 457 ft 10 kts 223°
2026-04-23 06:23 47.43600 19.26215 456 ft 11 kts 223°
2026-04-23 06:24 47.43538 19.26131 456 ft 13 kts 222°
2026-04-23 06:24 47.43467 19.26036 457 ft 15 kts 222°
2026-04-23 06:24 47.43421 19.25962 457 ft 6 kts 256°
2026-04-23 06:24 47.43406 19.25899 457 ft 6 kts 230°
2026-04-23 06:25 47.43382 19.25866 457 ft 5 kts 222°
2026-04-23 06:25 47.43366 19.25844 457 ft 1 kts 222°
2026-04-23 06:25 47.43363 19.25840 457 ft 0 kts 222°